,,,PA_Meas_PMT16A,,PR_Meas_QMR101_102,,RH_Meas_QMH101,,SR_Meas_QMS101,,TA_Meas_QMH101,,GenWind,,GenWind,
date,time,status,PA,status,PR,status,RH,status,SR,status,TA,status,DirAvg,status,SpdAvg,
2010-10-01, 00:00:04,VALID,1000.22,VALID,0,VALID,62.4958,VALID,657.682,VALID,31.2058,VALID,106,VALID,2.64648,
2010-10-01, 00:01:04,VALID,1000.23,VALID,0,VALID,62.656,VALID,862.629,VALID,31.3447,VALID,118,VALID,2.62109,
2010-10-01, 00:02:04,VALID,1000.17,VALID,0,VALID,60.0088,VALID,842.617,VALID,31.3838,VALID,129,VALID,5.10234,
2010-10-01, 00:03:04,VALID,1000.25,VALID,0,VALID,61.2599,VALID,833.365,VALID,31.4618,VALID,116,VALID,1.56562,
2010-10-01, 00:04:04,VALID,1000.22,VALID,0,VALID,60.3978,VALID,816.471,VALID,31.3862,VALID,85,VALID,2.41523,
2010-10-01, 00:05:04,VALID,1000.22,VALID,0,VALID,59.902,VALID,796.056,VALID,31.4228,VALID,85,VALID,3.21719,
2010-10-01, 00:06:04,VALID,1000.25,VALID,0,VALID,61.2294,VALID,783.788,VALID,31.4618,VALID,86,VALID,1.89492,
2010-10-01, 00:07:04,VALID,1000.12,VALID,0,VALID,60.5428,VALID,774.837,VALID,31.5008,VALID,68,VALID,2.73047,
2010-10-01, 00:08:04,VALID,1000.17,VALID,0,VALID,61.2675,VALID,766.491,VALID,31.5789,VALID,104,VALID,2.57148,
2010-10-01, 00:09:04,VALID,1000.12,VALID,0,VALID,58.3304,VALID,766.39,VALID,31.6179,VALID,104,VALID,3.32188,
2010-10-01, 00:10:04,VALID,1000.12,VALID,0,VALID,59.8638,VALID,771.62,VALID,31.5789,VALID,88,VALID,1.3707,
2010-10-01, 00:11:04,VALID,1000.2,VALID,0,VALID,59.8486,VALID,774.837,VALID,31.774,VALID,111,VALID,3.22305,
2010-10-01, 00:12:04,VALID,1000.16,VALID,0,VALID,60.024,VALID,770.815,VALID,31.8325,VALID,57,VALID,1.77266,
2010-10-01, 00:13:04,VALID,1000.15,VALID,0,VALID,57.4989,VALID,772.223,VALID,31.635,VALID,99,VALID,4.625,
2010-10-01, 00:14:04,VALID,1000.11,VALID,0,VALID,59.902,VALID,769.407,VALID,31.5399,VALID,122,VALID,3.5582,
2010-10-01, 00:15:04,VALID,1000.13,VALID,0,VALID,59.757,VALID,767.195,VALID,31.4813,VALID,111,VALID,4.57383,
2010-10-01, 00:16:04,VALID,1000.12,VALID,0,VALID,60.4894,VALID,777.452,VALID,31.4009,VALID,76,VALID,2.92539,
2010-10-01, 00:17:04,VALID,1000.09,VALID,0,VALID,60.4207,VALID,782.681,VALID,31.3838,VALID,74,VALID,2.42734,
2010-10-01, 00:18:04,VALID,1000.02,VALID,0,VALID,59.4519,VALID,754.926,VALID,31.3229,VALID,105,VALID,3.35898,
2010-10-01, 00:19:04,VALID,1000.06,VALID,0,VALID,62.3966,VALID,745.071,VALID,31.4204,VALID,96,VALID,2.35703,
2010-10-01, 00:20:04,VALID,1000.08,VALID,0,VALID,59.9325,VALID,757.239,VALID,31.5227,VALID,101,VALID,2.20508,
2010-10-01, 00:21:04,VALID,999.977,VALID,0,VALID,60.1385,VALID,742.557,VALID,31.5399,VALID,24,VALID,2.65,
2010-10-01, 00:22:04,VALID,1000.07,VALID,0,VALID,60.9395,VALID,734.813,VALID,31.5008,VALID,52,VALID,2.46406,
2010-10-01, 00:23:04,VALID,1000.11,VALID,0,VALID,58.3304,VALID,724.657,VALID,31.596,VALID,96,VALID,3.35156,
2010-10-01, 00:24:04,VALID,1000.08,VALID,0,VALID,58.422,VALID,729.282,VALID,31.5594,VALID,70,VALID,3.02305,
2010-10-01, 00:25:04,VALID,1000.02,VALID,0,VALID,58.4983,VALID,727.171,VALID,31.6569,VALID,36,VALID,2.03359,
2010-10-01, 00:26:04,VALID,999.992,VALID,0,VALID,59.8943,VALID,720.332,VALID,31.6593,VALID,130,VALID,1.92539,
2010-10-01, 00:27:04,VALID,999.997,VALID,0,VALID,59.7494,VALID,707.963,VALID,31.6764,VALID,62,VALID,3.11016,
2010-10-01, 00:28:04,VALID,999.984,VALID,0,VALID,60.024,VALID,705.952,VALID,31.7155,VALID,107,VALID,2.54922,
2010-10-01, 00:29:04,VALID,1000.02,VALID,0,VALID,60.0622,VALID,701.728,VALID,31.7179,VALID,100,VALID,2.57031,
2010-10-01, 00:30:04,VALID,999.968,VALID,0,VALID,59.6578,VALID,705.047,VALID,31.6008,VALID,109,VALID,2.0543,
2010-10-01, 00:31:04,VALID,999.977,VALID,0,VALID,59.4748,VALID,705.65,VALID,31.5984,VALID,113,VALID,2.35117,
2010-10-01, 00:32:04,VALID,999.98,VALID,0,VALID,60.7259,VALID,710.276,VALID,31.6179,VALID,9,VALID,1.97773,
2010-10-01, 00:33:04,VALID,1000.01,VALID,0,VALID,59.0628,VALID,711.885,VALID,31.7374,VALID,93,VALID,2.84883,
2010-10-01, 00:34:04,VALID,1000.01,VALID,0,VALID,59.1086,VALID,734.21,VALID,31.6569,VALID,109,VALID,4.29063,
2010-10-01, 00:35:04,VALID,1000.07,VALID,0,VALID,61.0005,VALID,741.652,VALID,31.5984,VALID,110,VALID,4.6082,
2010-10-01, 00:36:04,VALID,1000.05,VALID,0,VALID,59.9783,VALID,469.629,VALID,31.5789,VALID,116,VALID,2.76055,
2010-10-01, 00:37:04,VALID,1000.04,VALID,0,VALID,62.3966,VALID,761.563,VALID,31.5227,VALID,80,VALID,3.125,
2010-10-01, 00:38:04,VALID,999.99,VALID,0,VALID,60.024,VALID,760.155,VALID,31.5008,VALID,99,VALID,2.13008,
2010-10-01, 00:39:04,VALID,1000.05,VALID,0,VALID,60.0011,VALID,686.443,VALID,31.5594,VALID,41,VALID,2.01094,
2010-10-01, 00:40:04,VALID,1000.02,VALID,0,VALID,59.4595,VALID,714.701,VALID,31.4423,VALID,64,VALID,2.22695,
2010-10-01, 00:41:04,VALID,1000,VALID,0,VALID,59.4213,VALID,683.929,VALID,31.3424,VALID,22,VALID,3.8,
2010-10-01, 00:42:04,VALID,999.98,VALID,0,VALID,58.9789,VALID,674.476,VALID,31.3643,VALID,19,VALID,2.47617,
2010-10-01, 00:43:04,VALID,999.998,VALID,0,VALID,61.176,VALID,659.09,VALID,31.5227,VALID,37,VALID,1.325,
2010-10-01, 00:44:04,VALID,999.965,VALID,0,VALID,59.0628,VALID,655.67,VALID,31.5203,VALID,32,VALID,1.69922,
2010-10-01, 00:45:04,VALID,999.929,VALID,0,VALID,59.2611,VALID,653.559,VALID,31.5008,VALID,15,VALID,2.80117,
2010-10-01, 00:46:04,VALID,999.881,VALID,0,VALID,60.5886,VALID,652.855,VALID,31.5008,VALID,39,VALID,2.42656,
2010-10-01, 00:47:04,VALID,999.847,VALID,0,VALID,62.5263,VALID,660.397,VALID,31.5594,VALID,64,VALID,0.782031,
2010-10-01, 00:48:04,VALID,999.852,VALID,0,VALID,59.8181,VALID,649.435,VALID,31.835,VALID,34,VALID,2.13203,
2010-10-01, 00:49:04,VALID,999.799,VALID,0,VALID,58.6432,VALID,637.267,VALID,31.7569,VALID,84,VALID,1.8875,
2010-10-01, 00:50:04,VALID,999.784,VALID,0,VALID,60.0927,VALID,636.664,VALID,31.5765,VALID,114,VALID,3.35195,
2010-10-01, 00:51:04,VALID,999.809,VALID,0,VALID,62.3814,VALID,626.708,VALID,31.5008,VALID,80,VALID,1.33906,
2010-10-01, 00:52:04,VALID,999.719,VALID,0,VALID,60.5504,VALID,622.887,VALID,31.5789,VALID,81,VALID,2.82344,
2010-10-01, 00:53:04,VALID,999.727,VALID,0,VALID,62.4271,VALID,608.205,VALID,31.5984,VALID,90,VALID,1.69297,
2010-10-01, 00:54:04,VALID,999.699,VALID,0,VALID,61.4201,VALID,602.271,VALID,31.5765,VALID,77,VALID,1.48984,
2010-10-01, 00:55:04,VALID,999.695,VALID,0,VALID,60.6267,VALID,598.651,VALID,31.5594,VALID,98,VALID,3.5668,
2010-10-01, 00:56:04,VALID,999.616,VALID,0,VALID,60.3978,VALID,597.545,VALID,31.4423,VALID,51,VALID,1.92266,
2010-10-01, 00:57:04,VALID,999.667,VALID,0,VALID,62.183,VALID,595.634,VALID,31.4984,VALID,93,VALID,1.14766,
2010-10-01, 00:58:04,VALID,999.713,VALID,0,VALID,60.8174,VALID,596.539,VALID,31.5399,VALID,83,VALID,3.03984,
2010-10-01, 00:59:04,VALID,999.741,VALID,0,VALID,60.8327,VALID,593.724,VALID,31.5399,VALID,60,VALID,2.18789,
2010-10-01, 01:00:04,VALID,999.677,VALID,0,VALID,61.0539,VALID,590.103,VALID,31.4618,VALID,94,VALID,2.75508,
2010-10-01, 01:01:04,VALID,999.695,VALID,0,VALID,60.2987,VALID,586.383,VALID,31.5227,VALID,99,VALID,2.24688,
2010-10-01, 01:02:04,VALID,999.683,VALID,0,VALID,61.9465,VALID,584.673,VALID,31.5008,VALID,32,VALID,1.97031,
2010-10-01, 01:03:04,VALID,999.687,VALID,0,VALID,60.0545,VALID,583.366,VALID,31.6179,VALID,67,VALID,1.64063,
2010-10-01, 01:04:04,VALID,999.676,VALID,0,VALID,59.1772,VALID,584.975,VALID,31.5984,VALID,40,VALID,2.36211,
2010-10-01, 01:05:04,VALID,999.696,VALID,0,VALID,59.0933,VALID,576.829,VALID,31.5203,VALID,53,VALID,1.71133,
2010-10-01, 01:06:04,VALID,999.662,VALID,0,VALID,59.2688,VALID,560.739,VALID,31.557,VALID,122,VALID,1.65313,
2010-10-01, 01:07:04,VALID,999.67,VALID,0,VALID,58.1931,VALID,522.424,VALID,31.4618,VALID,92,VALID,3.77578,
2010-10-01, 01:08:04,VALID,999.596,VALID,0,VALID,58.956,VALID,465.204,VALID,31.4618,VALID,101,VALID,2.23477,
2010-10-01, 01:09:04,VALID,999.593,VALID,0,VALID,59.6273,VALID,463.193,VALID,31.4033,VALID,97,VALID,2.46523,
2010-10-01, 01:10:04,VALID,999.619,VALID,0,VALID,59.9401,VALID,494.267,VALID,31.4813,VALID,113,VALID,1.96172,
2010-10-01, 01:11:04,VALID,999.566,VALID,0,VALID,59.4671,VALID,472.042,VALID,31.2472,VALID,111,VALID,1.34102,
2010-10-01, 01:12:04,VALID,999.559,VALID,0,VALID,61.3286,VALID,488.032,VALID,31.2082,VALID,51,VALID,0.949609,
2010-10-01, 01:13:04,VALID,999.505,VALID,0,VALID,61.9923,VALID,503.72,VALID,31.2667,VALID,135,VALID,2.13711,
2010-10-01, 01:14:04,VALID,999.562,VALID,0,VALID,59.2917,VALID,508.145,VALID,31.3057,VALID,106,VALID,3.94766,
2010-10-01, 01:15:04,VALID,999.54,VALID,0,VALID,61.9618,VALID,511.161,VALID,31.1106,VALID,116,VALID,2.13867,
2010-10-01, 01:16:04,VALID,999.52,VALID,0,VALID,61.3057,VALID,518.905,VALID,31.2082,VALID,89,VALID,2.52656,
2010-10-01, 01:17:04,VALID,999.456,VALID,0,VALID,60.1766,VALID,514.681,VALID,31.1887,VALID,114,VALID,2.58359,
2010-10-01, 01:18:04,VALID,999.415,VALID,0,VALID,61.2141,VALID,512.67,VALID,31.1496,VALID,95,VALID,1.73906,
2010-10-01, 01:19:04,VALID,999.437,VALID,0,VALID,59.0475,VALID,514.983,VALID,31.0911,VALID,100,VALID,3.68281,
2010-10-01, 01:20:04,VALID,999.414,VALID,0,VALID,60.9624,VALID,508.145,VALID,30.9741,VALID,114,VALID,3.04609,
2010-10-01, 01:21:04,VALID,999.401,VALID,0,VALID,61.7405,VALID,499.999,VALID,31.0716,VALID,65,VALID,2.00312,
2010-10-01, 01:22:04,VALID,999.438,VALID,0,VALID,60.3673,VALID,504.323,VALID,31.0545,VALID,106,VALID,3.07383,
2010-10-01, 01:23:04,VALID,999.419,VALID,0,VALID,61.3591,VALID,495.373,VALID,30.9327,VALID,98,VALID,2.1418,
2010-10-01, 01:24:04,VALID,999.393,VALID,0,VALID,61.7558,VALID,493.563,VALID,30.9912,VALID,97,VALID,2.6207,
2010-10-01, 01:25:04,VALID,999.458,VALID,0,VALID,61.6337,VALID,486.423,VALID,31.0888,VALID,105,VALID,3.02031,
2010-10-01, 01:26:04,VALID,999.489,VALID,0,VALID,61.1607,VALID,492.256,VALID,31.1496,VALID,68,VALID,2.34531,
2010-10-01, 01:27:04,VALID,999.503,VALID,0,VALID,60.9319,VALID,481.093,VALID,31.2277,VALID,119,VALID,2.54023,
2010-10-01, 01:28:04,VALID,999.566,VALID,0,VALID,61.8321,VALID,478.881,VALID,31.1863,VALID,92,VALID,2.77852,
2010-10-01, 01:29:04,VALID,999.565,VALID,0,VALID,60.9471,VALID,476.367,VALID,31.2253,VALID,76,VALID,1.27891,
2010-10-01, 01:30:04,VALID,999.588,VALID,0,VALID,60.6877,VALID,475.562,VALID,31.3447,VALID,108,VALID,1.94961,
2010-10-01, 01:31:04,VALID,999.573,VALID,0,VALID,60.0393,VALID,464.299,VALID,31.3838,VALID,124,VALID,1.7918,
2010-10-01, 01:32:04,VALID,999.523,VALID,0,VALID,61.0158,VALID,464.098,VALID,31.4228,VALID,358,VALID,1.73555,
2010-10-01, 01:33:04,VALID,999.583,VALID,0,VALID,59.7036,VALID,460.075,VALID,31.4033,VALID,98,VALID,2.36289,
2010-10-01, 01:34:04,VALID,999.547,VALID,0,VALID,61.4964,VALID,185.136,VALID,31.2643,VALID,68,VALID,2.10352,
2010-10-01, 01:35:04,VALID,999.517,VALID,0,VALID,61.5345,VALID,474.255,VALID,31.2667,VALID,88,VALID,1.3582,
2010-10-01, 01:36:04,VALID,999.515,VALID,0,VALID,61.3743,VALID,481.395,VALID,31.3057,VALID,96,VALID,1.66602,
2010-10-01, 01:37:04,VALID,999.518,VALID,0,VALID,61.0539,VALID,489.239,VALID,31.3252,VALID,106,VALID,2.58008,
2010-10-01, 01:38:04,VALID,999.53,VALID,0,VALID,61.2065,VALID,222.546,VALID,31.2643,VALID,87,VALID,2.00898,
2010-10-01, 01:39:04,VALID,999.631,VALID,0,VALID,61.8626,VALID,474.758,VALID,31.3057,VALID,75,VALID,1.8957,
2010-10-01, 01:40:04,VALID,999.624,VALID,0,VALID,62.4424,VALID,335.176,VALID,31.2862,VALID,75,VALID,1.35234,
2010-10-01, 01:41:04,VALID,999.635,VALID,0,VALID,61.8626,VALID,455.852,VALID,31.3252,VALID,102,VALID,1.67344,
2010-10-01, 01:42:04,VALID,999.641,VALID,0,VALID,61.9541,VALID,466.109,VALID,31.3643,VALID,343,VALID,1.87539,
2010-10-01, 01:43:04,VALID,999.657,VALID,0,VALID,64.2733,VALID,463.092,VALID,31.3838,VALID,28,VALID,0.653906,
2010-10-01, 01:44:04,VALID,999.701,VALID,0,VALID,62.7323,VALID,457.863,VALID,31.5008,VALID,75,VALID,1,
2010-10-01, 01:45:04,VALID,999.71,VALID,0,VALID,62.4271,VALID,465.707,VALID,31.5789,VALID,31,VALID,1.51758,
2010-10-01, 01:46:04,VALID,999.777,VALID,0,VALID,62.8238,VALID,461.986,VALID,31.5594,VALID,83,VALID,1.73438,
2010-10-01, 01:47:04,VALID,999.75,VALID,0,VALID,63.2129,VALID,441.773,VALID,31.4252,VALID,96,VALID,2.25078,
2010-10-01, 01:48:04,VALID,999.79,VALID,0,VALID,62.8925,VALID,428.298,VALID,31.2862,VALID,64,VALID,2.16094,
2010-10-01, 01:49:04,VALID,999.782,VALID,0,VALID,64.0826,VALID,422.968,VALID,31.1692,VALID,41,VALID,1.23477,
2010-10-01, 01:50:04,VALID,999.779,VALID,0,VALID,63.3426,VALID,417.839,VALID,31.1301,VALID,39,VALID,2.12383,
2010-10-01, 01:51:04,VALID,999.773,VALID,0,VALID,63.6401,VALID,418.442,VALID,31.0302,VALID,59,VALID,1.73203,
2010-10-01, 01:52:04,VALID,999.797,VALID,0,VALID,63.5943,VALID,407.481,VALID,30.9717,VALID,92,VALID,2.65625,
2010-10-01, 01:53:04,VALID,999.801,VALID,0,VALID,63.8003,VALID,401.85,VALID,30.8765,VALID,84,VALID,3.12461,
2010-10-01, 01:54:04,VALID,999.77,VALID,0,VALID,64.5251,VALID,406.073,VALID,30.8157,VALID,346,VALID,0.688281,
2010-10-01, 01:55:04,VALID,999.774,VALID,0,VALID,65.4482,VALID,411.202,VALID,30.896,VALID,3,VALID,1.79883,
2010-10-01, 01:56:04,VALID,999.752,VALID,0,VALID,64.0673,VALID,409.291,VALID,30.9741,VALID,16,VALID,1.49727,
2010-10-01, 01:57:04,VALID,999.789,VALID,0,VALID,65.143,VALID,399.335,VALID,30.9132,VALID,64,VALID,1.99375,
2010-10-01, 01:58:04,VALID,999.799,VALID,0,VALID,65.0362,VALID,391.29,VALID,30.8157,VALID,90,VALID,1.6957,
2010-10-01, 01:59:04,VALID,999.811,VALID,0,VALID,65.6313,VALID,394.508,VALID,30.896,VALID,84,VALID,0.619531,
2010-10-01, 02:00:04,VALID,999.813,VALID,0,VALID,64.7463,VALID,309.332,VALID,30.9351,VALID,104,VALID,2.26797,
2010-10-01, 02:01:04,VALID,999.854,VALID,0,VALID,65.5245,VALID,162.51,VALID,30.9741,VALID,88,VALID,2.25664,
2010-10-01, 02:02:04,VALID,999.808,VALID,0,VALID,65.3566,VALID,167.337,VALID,30.9522,VALID,54,VALID,1.80195,
2010-10-01, 02:03:04,VALID,999.857,VALID,0,VALID,64.6853,VALID,264.279,VALID,30.9741,VALID,80,VALID,3.10625,
2010-10-01, 02:04:04,VALID,999.847,VALID,0,VALID,65.2422,VALID,287.007,VALID,30.818,VALID,16,VALID,2.18867,
2010-10-01, 02:05:04,VALID,999.868,VALID,0,VALID,65.4176,VALID,208.668,VALID,30.7205,VALID,44,VALID,2.04492,
2010-10-01, 02:06:04,VALID,999.87,VALID,0,VALID,67.1494,VALID,269.006,VALID,30.662,VALID,82,VALID,1.04102,
2010-10-01, 02:07:04,VALID,999.884,VALID,0,VALID,66.2492,VALID,261.765,VALID,30.6229,VALID,78,VALID,1.25742,
2010-10-01, 02:08:04,VALID,999.929,VALID,0,VALID,67.1265,VALID,272.626,VALID,30.662,VALID,47,VALID,1.9207,
2010-10-01, 02:09:04,VALID,999.981,VALID,0,VALID,66.5925,VALID,274.537,VALID,30.6401,VALID,12,VALID,2.79844,
2010-10-01, 02:10:04,VALID,999.97,VALID,0,VALID,66.4399,VALID,253.117,VALID,30.6424,VALID,85,VALID,2.03164,
2010-10-01, 02:11:04,VALID,1000.02,VALID,0,VALID,67.2333,VALID,229.384,VALID,30.6011,VALID,83,VALID,2.01484,
2010-10-01, 02:12:04,VALID,999.999,VALID,0,VALID,67.035,VALID,76.5284,VALID,30.5231,VALID,52,VALID,1.88945,
2010-10-01, 02:13:04,VALID,999.966,VALID,0,VALID,67.5232,VALID,67.6789,VALID,30.5449,VALID,49,VALID,0.936719,
2010-10-01, 02:14:04,VALID,1000.01,VALID,0,VALID,67.5461,VALID,163.817,VALID,30.3889,VALID,57,VALID,2.47617,
2010-10-01, 02:15:04,VALID,1000.02,VALID,0,VALID,68.042,VALID,183.628,VALID,30.2695,VALID,52,VALID,1.27422,
2010-10-01, 02:16:04,VALID,1000.02,VALID,0,VALID,68.1869,VALID,185.136,VALID,30.25,VALID,33,VALID,1.79023,
2010-10-01, 02:17:04,VALID,1000.06,VALID,0,VALID,68.4768,VALID,181.516,VALID,30.25,VALID,78,VALID,1.33438,
2010-10-01, 02:18:04,VALID,1000.06,VALID,0,VALID,68.8125,VALID,178.6,VALID,30.3109,VALID,23,VALID,1.49883,
2010-10-01, 02:19:04,VALID,1000.05,VALID,0,VALID,68.8659,VALID,171.158,VALID,30.2523,VALID,37,VALID,2.09648,
2010-10-01, 02:20:04,VALID,1000.04,VALID,0,VALID,68.3853,VALID,142.498,VALID,30.1938,VALID,82,VALID,2.17891,
2010-10-01, 02:21:04,VALID,1000.05,VALID,0,VALID,69.0261,VALID,151.749,VALID,30.133,VALID,17,VALID,1.4332,
2010-10-01, 02:22:04,VALID,1000.02,VALID,0,VALID,68.9269,VALID,169.449,VALID,30.1135,VALID,17,VALID,2.68086,
2010-10-01, 02:23:04,VALID,1000.12,VALID,0,VALID,69.9721,VALID,161.102,VALID,30.0355,VALID,71,VALID,1.70664,
2010-10-01, 02:24:04,VALID,1000.08,VALID,0,VALID,69.6364,VALID,129.123,VALID,30.0378,VALID,54,VALID,1.40117,
2010-10-01, 02:25:04,VALID,1000.08,VALID,0,VALID,69.049,VALID,144.107,VALID,29.9988,VALID,17,VALID,2.55938,
2010-10-01, 02:26:04,VALID,1000.09,VALID,0,VALID,70.0102,VALID,99.5573,VALID,29.9185,VALID,12,VALID,1.90234,
2010-10-01, 02:27:04,VALID,1000.11,VALID,0,VALID,70.8265,VALID,54.4046,VALID,29.899,VALID,71,VALID,0.922266,
2010-10-01, 02:28:04,VALID,1000.11,VALID,0,VALID,70.8342,VALID,112.429,VALID,29.9013,VALID,13,VALID,1.22344,
2010-10-01, 02:29:04,VALID,1000.13,VALID,0,VALID,71.3605,VALID,152.051,VALID,29.86,VALID,33,VALID,1.13203,
2010-10-01, 02:30:04,VALID,1000.16,VALID,0,VALID,70.5214,VALID,146.319,VALID,29.8233,VALID,58,VALID,1.2625,
2010-10-01, 02:31:04,VALID,1000.13,VALID,0,VALID,70.8647,VALID,139.984,VALID,29.8015,VALID,32,VALID,0.602344,
2010-10-01, 02:32:04,VALID,1000.16,VALID,0,VALID,70.1476,VALID,136.766,VALID,29.7625,VALID,93,VALID,1.51992,
2010-10-01, 02:33:04,VALID,1000.16,VALID,0,VALID,70.8647,VALID,111.524,VALID,29.743,VALID,19,VALID,1.98906,
2010-10-01, 02:34:04,VALID,1000.17,VALID,0,VALID,71.4216,VALID,55.6113,VALID,29.7235,VALID,75,VALID,0.834766,
2010-10-01, 02:35:04,VALID,1000.16,VALID,0,VALID,71.6886,VALID,130.128,VALID,29.7213,VALID,89,VALID,1.36445,
2010-10-01, 02:36:04,VALID,1000.15,VALID,0,VALID,71.2843,VALID,123.089,VALID,29.6823,VALID,33,VALID,1.7918,
2010-10-01, 02:37:04,VALID,1000.19,VALID,0,VALID,71.4216,VALID,124.195,VALID,29.6673,VALID,63,VALID,1.5082,
2010-10-01, 02:38:04,VALID,1000.21,VALID,0,VALID,71.9403,VALID,63.8575,VALID,29.6283,VALID,55,VALID,0.811328,
2010-10-01, 02:39:04,VALID,1000.24,VALID,0,VALID,72.2989,VALID,104.384,VALID,29.5675,VALID,40,VALID,1.18164,
2010-10-01, 02:40:04,VALID,1000.24,VALID,0,VALID,72.8711,VALID,68.0811,VALID,29.6088,VALID,75,VALID,0.610156,
2010-10-01, 02:41:04,VALID,1000.22,VALID,0,VALID,72.4744,VALID,41.9347,VALID,29.5698,VALID,22,VALID,1.41914,
2010-10-01, 02:42:04,VALID,1000.27,VALID,0,VALID,73.2525,VALID,51.4882,VALID,29.5698,VALID,83,VALID,0.815625,
2010-10-01, 02:43:04,VALID,1000.27,VALID,0,VALID,72.8863,VALID,43.946,VALID,29.5308,VALID,33,VALID,1.34727,
2010-10-01, 02:44:04,VALID,1000.26,VALID,0,VALID,72.955,VALID,43.5438,VALID,29.5113,VALID,67,VALID,0.638672,
2010-10-01, 02:45:04,VALID,1000.3,VALID,0,VALID,72.4591,VALID,42.2364,VALID,29.4115,VALID,22,VALID,1.43984,
2010-10-01, 02:46:04,VALID,1000.3,VALID,0,VALID,72.8482,VALID,38.3145,VALID,29.3725,VALID,36,VALID,0.758594,
2010-10-01, 02:47:04,VALID,1000.32,VALID,0,VALID,73.1152,VALID,28.761,VALID,29.314,VALID,81,VALID,1.98945,
2010-10-01, 02:48:04,VALID,1000.37,VALID,0,VALID,73.5424,VALID,24.6379,VALID,29.2968,VALID,45,VALID,0.986719,
2010-10-01, 02:49:04,VALID,1000.36,VALID,0,VALID,73.8399,VALID,22.2244,VALID,29.2361,VALID,63,VALID,0.889844,
2010-10-01, 02:50:04,VALID,1000.37,VALID,0,VALID,73.4203,VALID,20.4143,VALID,29.1581,VALID,19,VALID,1.71953,
2010-10-01, 02:51:04,VALID,1000.34,VALID,0,VALID,73.6187,VALID,21.621,VALID,29.1191,VALID,81,VALID,1.48828,
2010-10-01, 02:52:04,VALID,1000.39,VALID,0,VALID,74.1451,VALID,26.3475,VALID,29.0801,VALID,79,VALID,1.43047,
2010-10-01, 02:53:04,VALID,1000.4,VALID,0,VALID,74.5189,VALID,40.728,VALID,29.0823,VALID,31,VALID,1.16406,
2010-10-01, 02:54:04,VALID,1000.4,VALID,0,VALID,74.5647,VALID,43.2421,VALID,29.0411,VALID,64,VALID,1.66016,
2010-10-01, 02:55:04,VALID,1000.41,VALID,0,VALID,74.4655,VALID,39.7224,VALID,28.9804,VALID,25,VALID,2.17617,
2010-10-01, 02:56:04,VALID,1000.42,VALID,0,VALID,74.9003,VALID,37.1077,VALID,29.0021,VALID,83,VALID,1.30859,
2010-10-01, 02:57:04,VALID,1000.41,VALID,0,VALID,75.3047,VALID,35.901,VALID,29.0021,VALID,58,VALID,0.337109,
2010-10-01, 02:58:04,VALID,1000.42,VALID,0,VALID,75.6709,VALID,32.0796,VALID,29.0216,VALID,101,VALID,0.903125,
2010-10-01, 02:59:04,VALID,1000.46,VALID,0,VALID,76.0523,VALID,30.6717,VALID,29.0021,VALID,105,VALID,0.484375,
2010-10-01, 03:00:04,VALID,1000.42,VALID,0,VALID,75.3428,VALID,27.4537,VALID,28.9826,VALID,26,VALID,1.1582,
2010-10-01, 03:01:04,VALID,1000.45,VALID,0,VALID,75.6251,VALID,22.9284,VALID,28.9631,VALID,70,VALID,1.14727,
2010-10-01, 03:02:04,VALID,1000.46,VALID,0,VALID,75.8234,VALID,19.4086,VALID,28.9241,VALID,84,VALID,1.16484,
2010-10-01, 03:03:04,VALID,1000.51,VALID,0,VALID,76.5634,VALID,17.0957,VALID,28.9046,VALID,76,VALID,0.460938,
2010-10-01, 03:04:04,VALID,1000.5,VALID,0,VALID,76.8076,VALID,15.0844,VALID,28.8461,VALID,64,VALID,1.18203,
2010-10-01, 03:05:04,VALID,1000.5,VALID,0,VALID,76.7542,VALID,13.576,VALID,28.8072,VALID,20,VALID,1.32344,
2010-10-01, 03:06:04,VALID,1000.51,VALID,0,VALID,77.3034,VALID,12.3692,VALID,28.766,VALID,10,VALID,0.528906,
2010-10-01, 03:07:04,VALID,1000.55,VALID,0,VALID,77.4102,VALID,11.6653,VALID,28.7465,VALID,359,VALID,0.681641,
2010-10-01, 03:08:04,VALID,1000.55,VALID,0,VALID,78.0892,VALID,10.9614,VALID,28.7509,VALID,39,VALID,1.23203,
2010-10-01, 03:09:04,VALID,1000.56,VALID,0,VALID,77.6544,VALID,10.0563,VALID,28.6924,VALID,26,VALID,0.990625,
2010-10-01, 03:10:04,VALID,1000.57,VALID,0,VALID,77.7917,VALID,8.9501,VALID,28.6512,VALID,73,VALID,0.565625,
2010-10-01, 03:11:04,VALID,1000.58,VALID,0,VALID,78.1655,VALID,8.34672,VALID,28.6534,VALID,40,VALID,0.595703,
2010-10-01, 03:12:04,VALID,1000.59,VALID,0,VALID,78.5164,VALID,7.94447,VALID,28.6122,VALID,52,VALID,0.392188,
2010-10-01, 03:13:04,VALID,1000.58,VALID,0,VALID,78.7682,VALID,7.64278,VALID,28.5927,VALID,52,VALID,0.158984,
2010-10-01, 03:14:04,VALID,1000.62,VALID,0,VALID,78.875,VALID,7.44166,VALID,28.5949,VALID,39,VALID,0.350391,
2010-10-01, 03:15:04,VALID,1000.64,VALID,0,VALID,78.8979,VALID,6.93884,VALID,28.5342,VALID,67,VALID,0.549609,
2010-10-01, 03:16:04,VALID,1000.65,VALID,0,VALID,79.1115,VALID,6.63715,VALID,28.5169,VALID,26,VALID,1.02734,
2010-10-01, 03:17:04,VALID,1000.67,VALID,0,VALID,79.1802,VALID,6.53659,VALID,28.4758,VALID,12,VALID,1.8125,
2010-10-01, 03:18:04,VALID,1000.7,VALID,0,VALID,79.4777,VALID,6.73772,VALID,28.4758,VALID,42,VALID,1.0043,
2010-10-01, 03:19:04,VALID,1000.69,VALID,0,VALID,79.409,VALID,7.34109,VALID,28.4173,VALID,101,VALID,1.40391,
2010-10-01, 03:20:04,VALID,1000.75,VALID,0,VALID,79.8896,VALID,7.84391,VALID,28.4389,VALID,79,VALID,0.422266,
2010-10-01, 03:21:04,VALID,1000.78,VALID,0,VALID,79.7599,VALID,7.44166,VALID,28.3978,VALID,73,VALID,0.983203,
2010-10-01, 03:22:04,VALID,1000.81,VALID,0,VALID,79.8973,VALID,6.53659,VALID,28.3588,VALID,47,VALID,0.855469,
2010-10-01, 03:23:04,VALID,1000.79,VALID,0,VALID,80.149,VALID,5.53096,VALID,28.3393,VALID,29,VALID,1.71367,
2010-10-01, 03:24:04,VALID,1000.83,VALID,0,VALID,80.3169,VALID,4.52533,VALID,28.2592,VALID,96,VALID,0.91875,
2010-10-01, 03:25:04,VALID,1000.85,VALID,0,VALID,80.2863,VALID,3.92195,VALID,28.2397,VALID,90,VALID,0.883594,
2010-10-01, 03:26:04,VALID,1000.85,VALID,0,VALID,80.027,VALID,3.41914,VALID,28.2614,VALID,102,VALID,1.93906,
2010-10-01, 03:27:04,VALID,1000.89,VALID,0,VALID,80.2635,VALID,3.01689,VALID,28.2809,VALID,80,VALID,1.7293,
2010-10-01, 03:28:04,VALID,1000.89,VALID,0,VALID,80.4618,VALID,2.7152,VALID,28.2419,VALID,16,VALID,0.967578,
2010-10-01, 03:29:04,VALID,1000.88,VALID,0,VALID,80.6068,VALID,2.31295,VALID,28.2224,VALID,72,VALID,1.21641,
2010-10-01, 03:30:04,VALID,1000.86,VALID,0,VALID,80.8051,VALID,1.9107,VALID,28.2029,VALID,40,VALID,1.00664,
2010-10-01, 03:31:04,VALID,1000.85,VALID,0,VALID,80.7136,VALID,1.60901,VALID,28.1855,VALID,23,VALID,0.609375,
2010-10-01, 03:32:04,VALID,1000.84,VALID,0,VALID,80.8127,VALID,1.40788,VALID,28.1444,VALID,19,VALID,0.408984,
2010-10-01, 03:33:04,VALID,1000.83,VALID,0,VALID,80.9424,VALID,1.20676,VALID,28.1249,VALID,38,VALID,0.871875,
2010-10-01, 03:34:04,VALID,1000.84,VALID,0,VALID,80.8585,VALID,1.10619,VALID,28.1054,VALID,32,VALID,1.1125,
2010-10-01, 03:35:04,VALID,1000.86,VALID,0,VALID,81.1637,VALID,0.905066,VALID,28.0643,VALID,42,VALID,0.833984,